DW3153 Weather Reports


time (UTC)temp
C
wind
direction
speed
KPH
gust
KPH
rain 1hr
cm
rain 24hr
cm
rain mn
cm
humidity
%
barometer
mb
20260506124638 11 161 0.0 0.0 0.00 0.00 0.00 93 1020.2
20260506123655 11 161 0.0 0.0 0.00 0.00 0.00 93 1020.2
20260506122700 11 161 0.0 0.0 0.00 0.00 0.00 93 1020.2
20260506121720 11 161 0.0 0.0 0.00 0.00 0.00 93 1020.1
20260506120713 11 161 0.0 0.0 0.00 0.00 0.00 93 1020.1
20260506114551 11 161 0.0 0.0 0.00 0.00 0.00 93 1020.0
20260506113536 11 161 0.0 0.0 0.00 0.00 0.00 93 1019.9
20260506112528 11 161 0.0 0.0 0.00 0.00 0.00 93 1019.9
20260506111527 11 161 0.0 0.0 0.00 0.00 0.00 93 1019.8
20260506105404 11 161 0.0 0.0 0.00 0.00 0.00 93 1019.6
20260506104335 11 161 0.0 0.0 0.00 0.00 0.00 93 1019.6
20260506102215 11 161 0.0 0.0 0.00 0.00 0.00 93 1019.5
20260506101233 11 161 0.0 0.0 0.00 0.00 0.00 93 1019.4
20260506100201 11 161 0.0 0.0 0.00 0.00 0.00 93 1019.3
20260506095138 11 161 0.0 0.0 0.00 0.00 0.00 93 1019.4
20260506093026 11 161 0.0 0.0 0.00 0.00 0.00 93 1019.6
20260506090925 10 161 0.0 0.0 0.00 0.00 0.00 93 1019.4
20260506085936 10 161 0.0 0.0 0.00 0.00 0.00 93 1019.3
20260506084946 10 161 0.0 0.0 0.00 0.00 0.00 93 1019.4
20260506083951 10 161 0.0 0.0 0.00 0.00 0.00 93 1019.5
20260506082943 10 161 0.0 0.0 0.00 0.00 0.00 93 1019.5
20260506081932 10 161 0.0 0.0 0.00 0.05 0.00 92 1019.6
20260506072853 9 161 0.0 0.0 0.00 0.20 0.00 92 1019.1
20260506071836 9 161 0.0 0.0 0.00 0.23 0.00 92 1019.2
20260506070854 9 161 0.0 0.0 0.00 0.23 0.00 92 1019.1
20260506061848 9 161 0.0 0.0 0.00 0.23 0.23 91 1018.8
20260506060834 9 161 0.0 0.0 0.00 0.23 0.23 91 1018.6
20260506044332 10 161 0.0 0.0 0.00 0.41 0.23 89 1018.3
20260506043340 11 161 0.0 0.0 0.00 0.46 0.23 88 1018.1
20260506042313 11 161 0.0 0.0 0.00 0.51 0.23 87 1018.0
20260506040147 11 161 0.0 0.0 0.00 0.53 0.23 86 1017.6
20260506035136 12 161 0.0 0.0 0.00 0.53 0.23 85 1017.4
20260506034128 12 161 0.0 0.0 0.00 0.53 0.23 85 1017.2
20260506033141 12 144 0.0 0.0 0.00 0.56 0.23 84 1017.1
20260506031008 13 138 0.0 1.6 0.00 0.58 0.23 82 1016.7
20260506030021 13 176 0.0 4.8 0.00 0.58 0.23 81 1016.7
20260506024954 13 165 0.0 1.6 0.00 0.58 0.23 80 1016.6
20260506022830 15 148 0.0 9.7 0.00 0.58 0.23 79 1016.6
20260506021758 15 136 0.0 9.7 0.00 0.58 0.23 78 1016.5
20260506020736 15 142 0.0 9.7 0.00 0.58 0.23 77 1016.3
20260506015703 16 155 0.0 9.7 0.00 0.58 0.23 75 1016.2
20260506014727 16 144 0.0 9.7 0.00 0.58 0.23 75 1016.1
20260506013716 16 142 0.0 9.7 0.00 0.58 0.23 76 1016.2
20260506012642 16 167 0.0 8.0 0.00 0.58 0.23 75 1016.1
20260506011633 16 158 1.6 8.0 0.00 0.58 0.23 75 1016.2
20260506010623 17 26 1.6 6.4 0.00 0.58 0.23 74 1016.1
20260506005645 16 145 0.0 9.7 0.00 0.58 0.23 75 1016.0
20260506004700 16 141 1.6 9.7 0.00 0.58 0.23 75 1016.0
20260506003650 16 158 1.6 9.7 0.00 0.58 0.23 75 1015.9
20260506002633 17 142 1.6 8.0 0.00 0.58 0.23 73 1015.8
20260506001631 17 139 1.6 8.0 0.00 0.58 0.23 73 1015.7
20260506000558 17 120 0.0 8.0 0.00 0.58 0.23 75 1015.7
20260505235540 17 139 1.6 8.0 0.00 0.58 0.23 75 1015.7
20260505234544 16 323 1.6 9.7 0.00 0.58 0.23 75 1015.8
20260505233552 16 141 1.6 9.7 0.00 0.58 0.23 75 1015.8
20260505232546 16 139 1.6 6.4 0.00 0.58 0.23 75 1015.9
20260505231546 16 148 1.6 4.8 0.00 0.58 0.23 74 1015.8
20260505230545 17 138 0.0 4.8 0.00 0.58 0.23 73 1015.9
20260505225553 17 131 1.6 11.3 0.00 0.58 0.23 73 1015.8
20260505224529 17 186 1.6 11.3 0.00 0.58 0.23 73 1015.8
20260505223543 17 143 1.6 12.9 0.00 0.58 0.23 73 1015.8
20260505222527 17 341 1.6 12.9 0.00 0.58 0.23 73 1015.8
20260505215220 18 113 1.6 6.4 0.00 0.58 0.23 71 1015.9
20260505214245 18 120 3.2 14.5 0.00 0.58 0.23 72 1016.1
20260505213230 17 136 1.6 14.5 0.00 0.58 0.23 74 1016.1
20260505212201 17 139 1.6 11.3 0.00 0.58 0.23 74 1016.1
20260505211207 17 103 1.6 11.3 0.00 0.58 0.23 74 1016.2
20260505210229 17 112 1.6 9.7 0.00 0.58 0.23 75 1016.2
20260505205228 17 160 1.6 8.0 0.00 0.58 0.23 74 1016.2
20260505203126 16 130 3.2 11.3 0.00 0.58 0.23 75 1016.3
20260505202107 17 124 0.0 6.4 0.00 0.58 0.23 74 1016.3
20260505201112 16 150 0.0 1.6 0.00 0.58 0.23 75 1016.3
20260505195034 17 148 0.0 8.0 0.00 0.58 0.23 74 1016.4
20260505194011 17 161 1.6 9.7 0.00 0.58 0.23 74 1016.3
20260505193020 17 68 1.6 9.7 0.00 0.58 0.23 72 1016.3
20260505192012 17 139 0.0 3.2 0.00 0.58 0.23 72 1016.3
20260505191014 17 125 0.0 9.7 0.00 0.58 0.23 72 1016.4
20260505190014 17 156 1.6 9.7 0.00 0.58 0.23 73 1016.4
20260505185027 17 128 1.6 6.4 0.00 0.58 0.23 73 1016.3
20260505184009 16 73 1.6 6.4 0.00 0.58 0.23 76 1016.4
20260505183033 16 59 0.0 6.4 0.00 0.58 0.23 75 1016.4
20260505182031 16 156 0.0 0.0 0.00 0.58 0.23 75 1016.4
20260505181004 16 152 0.0 0.0 0.00 0.58 0.23 75 1016.3
20260505180021 16 157 0.0 3.2 0.00 0.58 0.23 74 1016.3
20260505174959 16 150 0.0 3.2 0.00 0.58 0.23 75 1016.1
20260505173959 16 170 0.0 1.6 0.00 0.58 0.23 77 1016.0
20260505171821 15 167 0.0 0.0 0.00 0.58 0.23 79 1016.1
20260505170828 15 145 0.0 1.6 0.00 0.58 0.23 80 1016.1
20260505165833 15 167 0.0 0.0 0.00 0.58 0.23 83 1016.1
20260505164857 14 167 0.0 3.2 0.00 0.58 0.23 84 1016.1
20260505163910 14 160 0.0 1.6 0.00 0.58 0.23 86 1016.2
20260505162853 14 160 0.0 0.0 0.00 0.58 0.23 89 1016.1
20260505152408 12 167 0.0 0.0 0.00 0.58 0.23 93 1015.6
20260505151423 12 166 0.0 0.0 0.03 0.58 0.23 93 1015.6
20260505150402 12 167 0.0 0.0 0.03 0.58 0.23 93 1015.4
20260505124807 11 165 0.0 0.0 0.00 0.58 0.20 93 1014.9